DW3835 Weather Reports


Display with metric or nautical units.
time (UTC)temp
F
wind
direction
speed
MPH
gust
MPH
rain 1hr
in
rain 24hr
in
rain mn
in
humidity
%
barometer
mb
20260504033605 55 107 0.0 0.0 0.00 0.00 0.00 82 1012.0
20260504032538 55 355 0.0 0.0 0.00 0.00 0.00 82 1011.9
20260504031510 56 180 0.0 1.0 0.00 0.00 0.00 81 1011.6
20260504030442 56 172 0.0 0.0 0.00 0.00 0.00 82 1011.6
20260504025439 57 148 0.0 0.0 0.00 0.00 0.00 81 1011.6
20260504024429 57 150 0.0 3.0 0.00 0.00 0.00 82 1011.5
20260504023356 57 103 0.0 2.0 0.00 0.00 0.00 81 1011.3
20260504022413 57 138 0.0 6.0 0.00 0.00 0.00 80 1011.1
20260504021429 57 202 0.0 6.0 0.00 0.00 0.00 80 1011.1
20260504020447 58 144 0.0 8.0 0.00 0.00 0.00 79 1011.1
20260504015449 58 148 0.0 1.0 0.00 0.00 0.00 79 1011.0
20260504014500 58 128 0.0 0.0 0.00 0.00 0.00 79 1011.2
20260504012348 59 171 0.0 3.0 0.00 0.00 0.00 77 1011.2
20260504010240 60 145 0.0 7.0 0.00 0.00 0.00 76 1011.3
20260504005255 60 143 0.0 4.0 0.00 0.00 0.00 76 1011.3
20260504003133 60 152 0.0 3.0 0.00 0.00 0.00 75 1011.2
20260504000947 61 177 1.0 8.0 0.00 0.00 0.00 73 1011.1
20260504000000 62 326 1.0 6.0 0.00 0.00 0.00 70 1010.9
20260503235011 62 61 1.0 6.0 0.00 0.00 0.00 71 1010.8
20260503234031 62 155 1.0 6.0 0.00 0.00 0.00 71 1010.9
20260503233047 62 288 0.0 7.0 0.00 0.00 0.00 70 1010.9
20260503232037 62 102 1.0 7.0 0.00 0.00 0.00 70 1010.9
20260503231003 61 92 1.0 5.0 0.00 0.00 0.00 72 1010.7
20260503225958 62 179 0.0 5.0 0.00 0.00 0.00 71 1010.9
20260503225004 62 167 1.0 7.0 0.00 0.00 0.00 71 1010.8
20260503224029 62 257 0.0 7.0 0.00 0.00 0.00 72 1010.9
20260503223037 62 121 0.0 7.0 0.00 0.00 0.00 73 1011.1
20260503222101 61 184 0.0 4.0 0.00 0.00 0.00 74 1011.1
20260503215911 62 169 1.0 8.0 0.00 0.00 0.00 72 1011.0
20260503214905 63 201 2.0 8.0 0.00 0.00 0.00 70 1011.0
20260503213900 62 167 1.0 4.0 0.00 0.00 0.00 69 1011.1
20260503212855 62 183 1.0 7.0 0.00 0.00 0.00 71 1011.0
20260503210655 62 174 0.0 4.0 0.00 0.00 0.00 71 1011.1
20260503205655 62 153 1.0 6.0 0.00 0.00 0.00 73 1011.1
20260503203521 62 159 1.0 6.0 0.00 0.00 0.00 75 1010.9
20260503202526 62 156 0.0 4.0 0.00 0.00 0.00 73 1011.0
20260503201515 63 132 1.0 5.0 0.00 0.00 0.00 73 1011.1
20260503200502 63 168 1.0 5.0 0.00 0.00 0.00 72 1011.1
20260503195458 62 254 1.0 6.0 0.00 0.00 0.00 71 1011.2
20260503194443 61 167 1.0 6.0 0.00 0.00 0.00 73 1011.3
20260503193424 61 189 1.0 6.0 0.00 0.00 0.00 73 1011.3
20260503192359 60 161 0.0 4.0 0.00 0.00 0.00 76 1011.3
20260503191410 59 194 0.0 4.0 0.00 0.00 0.00 77 1011.4
20260503190348 59 54 0.0 4.0 0.00 0.00 0.00 79 1011.5
20260503184234 59 85 0.0 6.0 0.00 0.00 0.00 77 1011.5
20260503183215 60 117 1.0 6.0 0.00 0.00 0.00 77 1011.5
20260503182201 60 182 1.0 6.0 0.00 0.00 0.00 79 1011.5
20260503180025 57 138 1.0 5.0 0.00 0.00 0.00 86 1011.5
20260503173840 56 163 0.0 2.0 0.00 0.00 0.00 86 1011.3
20260503172835 56 163 0.0 5.0 0.00 0.00 0.00 84 1011.2
20260503171823 57 148 1.0 7.0 0.00 0.00 0.00 83 1011.2
20260503170821 57 148 1.0 7.0 0.00 0.00 0.00 82 1011.2
20260503150439 55 158 0.0 4.0 0.00 0.00 0.00 83 1010.7
20260503140210 54 160 0.0 1.0 0.00 0.00 0.00 85 1010.2
20260503131024 53 153 0.0 1.0 0.00 0.00 0.00 85 1009.5
20260503110559 54 166 0.0 3.0 0.00 0.00 0.00 84 1009.4
20260503100258 53 172 0.0 1.0 0.00 0.00 0.00 84 1009.3
20260503090119 54 146 0.0 1.0 0.00 0.00 0.00 84 1009.7
20260503080946 54 162 0.0 0.0 0.00 0.00 0.00 85 1010.0
20260503072803 54 165 0.0 3.0 0.00 0.00 0.00 84 1010.1
20260503071810 54 167 0.0 2.0 0.00 0.00 0.00 84 1010.2
20260503054637 54 163 0.0 2.0 0.00 0.00 0.00 83 1010.6
20260503053607 54 182 0.0 0.0 0.00 0.00 0.00 84 1010.6
20260503052600 54 91 0.0 0.0 0.00 0.00 0.00 83 1010.7
20260503051624 54 0 0.0 0.0 0.00 0.00 0.00 84 1010.6
20260503045547 54 183 0.0 3.0 0.00 0.00 0.00 83 1010.4
20260503043414 54 355 0.0 1.0 0.00 0.00 0.00 84 1010.4
20260503041237 55 46 0.0 0.0 0.00 0.00 0.00 83 1010.3
20260503040241 55 124 0.0 3.0 0.00 0.00 0.00 84 1010.1
20260503034107 55 162 0.0 3.0 0.00 0.00 0.00 84 1010.2